Location: Unspecified
(0.0000°N, 0.0000°E)
Time: 11:20:36
(UTC+00:00)

S-56A Canister/Altair - Pass Details

Date: 26 May 2024
Orbit: 637 x 2489 km, 38.9° (Epoch: 17 June)

Event Time Altitude Azimuth Distance (km) Brightness Sun altitude
Rises 13:24:50 0° 313° (NW) 3,316 11.2 59.8°
Reaches altitude 10° 13:27:31 10° 315° (NW) 2,226 10.6 59.4°
Maximum altitude 13:32:24 77° 41° (NE) 665 8.4 58.5°
Drops below altitude 10° 13:36:51 10° 127° (SE) 2,023 9.5 57.7°
Sets 13:39:10 0° 129° (SE) 2,984 10.2 57.2°
